Time,TemperatureF,DewpointF,PressureIn,WindDirection,WindDirectionDegrees,WindSpeedMPH,WindSpeedGustMPH,Humidity,HourlyPrecipIn,Conditions,Clouds,dailyrainin,SoftwareType,DateUTC
2013-08-27 00:13:00,72.2,64.5,29.96,NNW,338,0.0,0.0,77,0.00,,,0.00,WUHU216HW,2013-08-27 04:13:00,
2013-08-27 00:18:00,72.2,64.5,29.96,NNW,338,0.0,0.0,77,0.00,,,0.00,WUHU216HW,2013-08-27 04:18:00,
2013-08-27 00:19:00,72.2,64.5,29.96,NNW,338,0.0,0.0,77,0.00,,,0.00,WUHU216HW,2013-08-27 04:19:00,
2013-08-27 01:00:00,70.9,64.4,29.93,NNW,338,0.0,0.0,80,0.00,,,0.00,WUHU216HW,2013-08-27 05:00:00,
2013-08-27 01:05:00,70.9,64.4,29.92,NNW,338,0.0,0.0,80,0.00,,,0.00,WUHU216HW,2013-08-27 05:05:00,
2013-08-27 01:06:00,70.9,64.4,29.92,NNW,338,0.0,0.0,80,0.00,,,0.00,WUHU216HW,2013-08-27 05:06:00,
2013-08-27 01:10:00,71.1,64.6,29.92,NNW,338,0.0,0.0,80,0.00,,,0.00,WUHU216HW,2013-08-27 05:10:00,
2013-08-27 01:11:00,71.3,64.8,29.92,NNW,338,0.0,0.0,80,0.00,,,0.00,WUHU216HW,2013-08-27 05:11:00,
2013-08-27 01:12:00,71.3,64.8,29.92,NNW,338,0.0,0.0,80,0.00,,,0.00,WUHU216HW,2013-08-27 05:12:00,
2013-08-27 01:15:00,71.5,65.0,29.92,NNW,338,0.0,0.0,80,0.00,,,0.00,WUHU216HW,2013-08-27 05:15:00,
2013-08-27 01:16:00,71.5,65.0,29.92,NNW,338,0.0,0.0,80,0.00,,,0.00,WUHU216HW,2013-08-27 05:16:00,
2013-08-27 01:17:00,71.6,65.2,29.92,NNW,338,0.0,0.0,80,0.00,,,0.00,WUHU216HW,2013-08-27 05:17:00,
2013-08-27 01:20:00,71.6,64.8,29.93,NNW,338,0.0,0.0,79,0.00,,,0.00,WUHU216HW,2013-08-27 05:20:00,
2013-08-27 03:59:00,71.6,64.8,29.93,NNW,338,0.0,0.0,79,0.00,,,0.00,WUHU216HW,2013-08-27 07:59:00,
2013-08-27 04:00:00,70.4,65.3,29.90,NNW,338,0.0,0.0,84,0.00,,,0.00,WUHU216HW,2013-08-27 08:00:00,
2013-08-27 04:05:00,70.4,65.3,29.90,NNW,338,0.0,0.0,84,0.00,,,0.00,WUHU216HW,2013-08-27 08:05:00,
2013-08-27 04:06:00,70.4,65.6,29.90,NNW,338,0.0,0.0,85,0.00,,,0.00,WUHU216HW,2013-08-27 08:06:00,
2013-08-27 04:10:00,70.2,65.4,29.90,NNW,338,0.0,0.0,85,0.00,,,0.00,WUHU216HW,2013-08-27 08:10:00,
2013-08-27 04:11:00,70.4,65.6,29.90,NNW,338,0.0,0.0,85,0.00,,,0.00,WUHU216HW,2013-08-27 08:11:00,
2013-08-27 04:15:00,70.4,65.6,29.90,NNW,338,0.0,0.0,85,0.00,,,0.00,WUHU216HW,2013-08-27 08:15:00,
2013-08-27 04:16:00,70.2,65.4,29.90,NNW,338,0.0,0.0,85,0.00,,,0.00,WUHU216HW,2013-08-27 08:16:00,
2013-08-27 04:17:00,70.2,65.4,29.90,NNW,338,0.0,0.0,85,0.00,,,0.00,WUHU216HW,2013-08-27 08:17:00,
2013-08-27 04:20:00,70.2,65.4,29.90,NNW,338,0.0,0.0,85,0.00,,,0.00,WUHU216HW,2013-08-27 08:20:00,
2013-08-27 04:21:00,70.2,65.4,29.90,NNW,338,0.0,0.0,85,0.00,,,0.00,WUHU216HW,2013-08-27 08:21:00,
2013-08-27 04:22:00,70.2,65.4,29.90,NNW,338,0.0,0.0,85,0.00,,,0.00,WUHU216HW,2013-08-27 08:22:00,
2013-08-27 04:25:00,70.2,65.4,29.90,NNW,338,0.0,0.0,85,0.00,,,0.00,WUHU216HW,2013-08-27 08:25:00,
2013-08-27 04:26:00,70.2,65.4,29.90,NNW,338,0.0,0.0,85,0.00,,,0.00,WUHU216HW,2013-08-27 08:26:00,
2013-08-27 04:27:00,70.2,65.4,29.90,NNW,338,0.0,0.0,85,0.00,,,0.00,WUHU216HW,2013-08-27 08:27:00,
2013-08-27 04:28:00,70.2,65.8,29.90,NNW,338,0.0,0.0,86,0.00,,,0.00,WUHU216HW,2013-08-27 08:28:00,
2013-08-27 04:30:00,70.2,65.8,29.90,NNW,338,0.0,0.0,86,0.00,,,0.00,WUHU216HW,2013-08-27 08:30:00,
2013-08-27 04:31:00,70.2,65.8,29.90,NNW,338,0.0,0.0,86,0.00,,,0.00,WUHU216HW,2013-08-27 08:31:00,
2013-08-27 04:32:00,70.2,65.8,29.90,NNW,338,0.0,0.0,86,0.00,,,0.00,WUHU216HW,2013-08-27 08:32:00,
2013-08-27 04:33:00,70.2,65.8,29.90,NNW,338,0.0,0.0,86,0.00,,,0.00,WUHU216HW,2013-08-27 08:33:00,
2013-08-27 04:36:00,70.2,65.8,29.90,NNW,338,0.0,0.0,86,0.00,,,0.00,WUHU216HW,2013-08-27 08:36:00,
2013-08-27 04:37:00,70.2,65.8,29.90,NNW,338,0.0,0.0,86,0.00,,,0.00,WUHU216HW,2013-08-27 08:37:00,
2013-08-27 04:38:00,70.2,65.8,29.90,NNW,338,0.0,0.0,86,0.00,,,0.00,WUHU216HW,2013-08-27 08:38:00,
2013-08-27 04:41:00,70.2,65.8,29.90,NNW,338,0.0,0.0,86,0.00,,,0.00,WUHU216HW,2013-08-27 08:41:00,
2013-08-27 04:42:00,70.2,65.8,29.89,NNW,338,0.0,0.0,86,0.00,,,0.00,WUHU216HW,2013-08-27 08:42:00,
2013-08-27 04:43:00,70.2,65.8,29.89,NNW,338,0.0,0.0,86,0.00,,,0.00,WUHU216HW,2013-08-27 08:43:00,
2013-08-27 04:46:00,70.2,65.8,29.90,NNW,338,0.0,0.0,86,0.00,,,0.00,WUHU216HW,2013-08-27 08:46:00,
2013-08-27 04:48:00,70.2,65.8,29.89,NNW,338,0.0,0.0,86,0.00,,,0.00,WUHU216HW,2013-08-27 08:48:00,
2013-08-27 04:49:00,70.2,65.8,29.89,NNW,338,0.0,0.0,86,0.00,,,0.00,WUHU216HW,2013-08-27 08:49:00,
2013-08-27 04:52:00,70.2,65.8,29.89,NNW,338,0.0,0.0,86,0.00,,,0.00,WUHU216HW,2013-08-27 08:52:00,
2013-08-27 04:53:00,70.2,65.8,29.89,NNW,338,0.0,0.0,86,0.00,,,0.00,WUHU216HW,2013-08-27 08:53:00,
2013-08-27 04:54:00,70.2,65.8,29.89,NNW,338,0.0,0.0,86,0.00,,,0.00,WUHU216HW,2013-08-27 08:54:00,
2013-08-27 04:57:00,70.4,66.0,29.89,NNW,338,0.0,0.0,86,0.00,,,0.00,WUHU216HW,2013-08-27 08:57:00,
2013-08-27 04:58:00,70.4,66.0,29.89,NNW,338,0.0,0.0,86,0.00,,,0.00,WUHU216HW,2013-08-27 08:58:00,
2013-08-27 04:59:00,70.4,66.0,29.89,NNW,338,0.0,0.0,86,0.00,,,0.00,WUHU216HW,2013-08-27 08:59:00,
2013-08-27 05:10:00,70.4,66.0,29.89,NNW,338,0.0,0.0,86,0.00,,,0.00,WUHU216HW,2013-08-27 09:10:00,
2013-08-27 05:11:00,70.4,66.0,29.89,NNW,338,0.0,0.0,86,0.00,,,0.00,WUHU216HW,2013-08-27 09:11:00,
2013-08-27 05:16:00,70.4,66.0,29.89,NNW,338,0.0,0.0,86,0.00,,,0.00,WUHU216HW,2013-08-27 09:16:00,
2013-08-27 05:17:00,70.4,66.0,29.89,NNW,338,0.0,0.0,86,0.00,,,0.00,WUHU216HW,2013-08-27 09:17:00,
2013-08-27 06:00:00,70.2,65.8,29.89,NNW,338,0.0,0.0,86,0.00,,,0.00,WUHU216HW,2013-08-27 10:00:00,
2013-08-27 06:05:00,70.2,66.2,29.89,NNW,338,0.0,0.0,87,0.00,,,0.00,WUHU216HW,2013-08-27 10:05:00,
2013-08-27 06:06:00,70.2,66.2,29.89,NNW,338,0.0,0.0,87,0.00,,,0.00,WUHU216HW,2013-08-27 10:06:00,
2013-08-27 06:10:00,70.0,66.2,29.89,NNW,338,0.0,0.0,88,0.00,,,0.00,WUHU216HW,2013-08-27 10:10:00,
2013-08-27 07:33:00,70.0,66.2,29.89,NNW,338,0.0,0.0,88,0.00,,,0.00,WUHU216HW,2013-08-27 11:33:00,
2013-08-27 07:34:00,70.0,66.2,29.89,NNW,338,0.0,0.0,88,0.00,,,0.00,WUHU216HW,2013-08-27 11:34:00,
2013-08-27 07:38:00,70.0,66.2,29.89,NNW,338,0.0,0.0,88,0.00,,,0.00,WUHU216HW,2013-08-27 11:38:00,
2013-08-27 07:39:00,70.0,66.2,29.89,NNW,338,0.0,0.0,88,0.00,,,0.00,WUHU216HW,2013-08-27 11:39:00,
2013-08-27 08:00:00,70.9,68.1,29.90,NNW,338,0.0,0.0,91,0.00,,,0.00,WUHU216HW,2013-08-27 12:00:00,
2013-08-27 08:03:00,71.1,68.0,29.90,NNW,338,0.0,0.0,90,0.00,,,0.00,WUHU216HW,2013-08-27 12:03:00,
2013-08-27 08:05:00,71.3,68.2,29.90,NNW,338,0.0,0.2,90,0.00,,,0.00,WUHU216HW,2013-08-27 12:05:00,
2013-08-27 08:08:00,71.5,68.4,29.90,NNW,338,0.0,0.2,90,0.00,,,0.00,WUHU216HW,2013-08-27 12:08:00,
2013-08-27 08:10:00,71.6,68.6,29.90,NNW,338,0.0,0.2,90,0.00,,,0.00,WUHU216HW,2013-08-27 12:10:00,
2013-08-27 08:11:00,71.8,68.8,29.90,NNW,338,0.0,0.2,90,0.00,,,0.00,WUHU216HW,2013-08-27 12:11:00,
2013-08-27 08:13:00,71.8,68.4,29.89,NNW,338,0.0,0.0,89,0.00,,,0.00,WUHU216HW,2013-08-27 12:13:00,
2013-08-27 08:15:00,72.0,68.6,29.89,NNW,338,0.0,0.0,89,0.00,,,0.00,WUHU216HW,2013-08-27 12:15:00,
2013-08-27 08:16:00,72.0,68.6,29.89,NNW,338,0.0,0.0,89,0.00,,,0.00,WUHU216HW,2013-08-27 12:16:00,
2013-08-27 08:19:00,72.0,68.2,29.89,NNW,338,0.0,0.0,88,0.00,,,0.00,WUHU216HW,2013-08-27 12:19:00,
2013-08-27 08:20:00,72.2,68.4,29.90,NNW,338,0.0,0.0,88,0.00,,,0.00,WUHU216HW,2013-08-27 12:20:00,
2013-08-27 08:21:00,72.2,68.4,29.89,NNW,338,0.0,0.0,88,0.00,,,0.00,WUHU216HW,2013-08-27 12:21:00,
2013-08-27 08:24:00,72.4,68.6,29.90,NNW,338,0.0,0.0,88,0.00,,,0.00,WUHU216HW,2013-08-27 12:24:00,
2013-08-27 08:26:00,72.4,68.6,29.89,NNW,338,0.0,0.0,88,0.00,,,0.00,WUHU216HW,2013-08-27 12:26:00,
2013-08-27 08:27:00,72.4,68.6,29.89,NNW,338,0.0,0.0,88,0.00,,,0.00,WUHU216HW,2013-08-27 12:27:00,
2013-08-27 08:29:00,72.5,68.5,29.90,NNW,338,0.0,0.0,87,0.00,,,0.00,WUHU216HW,2013-08-27 12:29:00,
2013-08-27 08:31:00,72.5,68.5,29.89,NNW,338,0.0,0.0,87,0.00,,,0.00,WUHU216HW,2013-08-27 12:31:00,
2013-08-27 08:32:00,72.7,68.7,29.89,NNW,338,0.0,0.0,87,0.00,,,0.00,WUHU216HW,2013-08-27 12:32:00,
2013-08-27 08:34:00,72.7,68.7,29.89,NNW,338,0.0,0.0,87,0.00,,,0.00,WUHU216HW,2013-08-27 12:34:00,
2013-08-27 08:36:00,73.1,68.7,29.89,NNW,338,0.0,0.0,86,0.00,,,0.00,WUHU216HW,2013-08-27 12:36:00,
2013-08-27 08:37:00,72.9,68.9,29.89,NNW,338,0.0,0.0,87,0.00,,,0.00,WUHU216HW,2013-08-27 12:37:00,
2013-08-27 08:40:00,73.3,69.5,29.89,NNW,338,0.0,0.0,88,0.00,,,0.00,WUHU216HW,2013-08-27 12:40:00,
2013-08-27 08:42:00,73.4,69.4,29.89,NNW,338,0.0,0.0,87,0.00,,,0.00,WUHU216HW,2013-08-27 12:42:00,
2013-08-27 08:45:00,73.6,69.6,29.89,NNW,338,0.0,0.0,87,0.00,,,0.00,WUHU216HW,2013-08-27 12:45:00,
2013-08-27 08:47:00,73.8,69.8,29.89,NNW,338,0.0,0.0,87,0.00,,,0.00,WUHU216HW,2013-08-27 12:47:00,
2013-08-27 08:48:00,73.8,69.8,29.89,NNW,338,0.0,0.0,87,0.00,,,0.00,WUHU216HW,2013-08-27 12:48:00,
2013-08-27 08:50:00,73.8,69.4,29.89,NNW,338,0.0,0.0,86,0.00,,,0.00,WUHU216HW,2013-08-27 12:50:00,
2013-08-27 08:52:00,74.0,69.6,29.89,NNW,338,0.0,0.0,86,0.00,,,0.00,WUHU216HW,2013-08-27 12:52:00,
2013-08-27 08:53:00,74.0,69.6,29.89,NNW,338,0.0,0.0,86,0.00,,,0.00,WUHU216HW,2013-08-27 12:53:00,
2013-08-27 08:55:00,74.0,69.2,29.89,NNW,338,0.0,0.0,85,0.00,,,0.00,WUHU216HW,2013-08-27 12:55:00,
2013-08-27 08:57:00,74.2,69.4,29.89,NNW,338,0.0,0.0,85,0.00,,,0.00,WUHU216HW,2013-08-27 12:57:00,
2013-08-27 08:58:00,74.3,69.6,29.89,NNW,338,0.0,0.0,85,0.00,,,0.00,WUHU216HW,2013-08-27 12:58:00,
2013-08-27 09:01:00,74.5,69.8,29.89,NNW,338,0.0,0.0,85,0.00,,,0.00,WUHU216HW,2013-08-27 13:01:00,
2013-08-27 09:02:00,74.5,69.8,29.89,NNW,338,0.0,0.0,85,0.00,,,0.00,WUHU216HW,2013-08-27 13:02:00,
2013-08-27 09:03:00,74.5,69.8,29.89,NNW,338,0.0,0.0,85,0.00,,,0.00,WUHU216HW,2013-08-27 13:03:00,
2013-08-27 09:06:00,74.7,69.6,29.89,West,270,0.0,1.1,84,0.00,,,0.00,WUHU216HW,2013-08-27 13:06:00,
2013-08-27 09:07:00,74.9,69.8,29.89,West,270,0.0,1.1,84,0.00,,,0.00,WUHU216HW,2013-08-27 13:07:00,
2013-08-27 09:08:00,74.9,69.8,29.89,West,270,0.0,1.1,84,0.00,,,0.00,WUHU216HW,2013-08-27 13:08:00,
2013-08-27 09:09:00,74.9,69.8,29.89,West,270,0.0,1.1,84,0.00,,,0.00,WUHU216HW,2013-08-27 13:09:00,
2013-08-27 09:11:00,75.1,69.6,29.89,West,270,0.0,1.1,83,0.00,,,0.00,WUHU216HW,2013-08-27 13:11:00,
2013-08-27 09:12:00,75.2,69.8,29.89,West,270,0.0,1.1,83,0.00,,,0.00,WUHU216HW,2013-08-27 13:12:00,
2013-08-27 09:13:00,75.2,69.8,29.89,West,270,0.0,1.1,83,0.00,,,0.00,WUHU216HW,2013-08-27 13:13:00,
2013-08-27 09:14:00,75.2,69.8,29.89,West,270,0.0,1.1,83,0.00,,,0.00,WUHU216HW,2013-08-27 13:14:00,
2013-08-27 09:17:00,75.2,69.8,29.89,West,270,0.0,0.0,83,0.00,,,0.00,WUHU216HW,2013-08-27 13:17:00,
2013-08-27 09:18:00,75.4,69.9,29.89,West,270,0.0,0.0,83,0.00,,,0.00,WUHU216HW,2013-08-27 13:18:00,
2013-08-27 09:19:00,75.4,69.9,29.89,West,270,0.0,0.0,83,0.00,,,0.00,WUHU216HW,2013-08-27 13:19:00,
2013-08-27 09:20:00,75.6,70.1,29.89,West,270,0.0,0.0,83,0.00,,,0.00,WUHU216HW,2013-08-27 13:20:00,
2013-08-27 09:22:00,75.6,69.8,29.89,WNW,293,0.0,0.4,82,0.00,,,0.00,WUHU216HW,2013-08-27 13:22:00,
2013-08-27 09:23:00,75.8,69.6,29.89,NW,315,0.2,0.4,81,0.00,,,0.00,WUHU216HW,2013-08-27 13:23:00,
2013-08-27 09:24:00,75.8,69.6,29.89,NW,315,0.4,0.4,81,0.00,,,0.00,WUHU216HW,2013-08-27 13:24:00,
2013-08-27 09:25:00,75.8,69.6,29.89,ESE,113,0.4,0.4,81,0.00,,,0.00,WUHU216HW,2013-08-27 13:25:00,
2013-08-27 09:27:00,75.8,69.6,29.89,ESE,113,0.4,0.4,81,0.00,,,0.00,WUHU216HW,2013-08-27 13:27:00,
2013-08-27 09:29:00,75.8,69.6,29.89,ESE,113,0.4,0.4,81,0.00,,,0.00,WUHU216HW,2013-08-27 13:29:00,
2013-08-27 09:30:00,75.8,69.6,29.89,ESE,113,0.4,0.4,81,0.00,,,0.00,WUHU216HW,2013-08-27 13:30:00,
2013-08-27 09:31:00,75.8,69.6,29.89,ESE,113,0.4,0.4,81,0.00,,,0.00,WUHU216HW,2013-08-27 13:31:00,
2013-08-27 09:32:00,75.8,69.6,29.89,ESE,113,0.4,0.4,81,0.00,,,0.00,WUHU216HW,2013-08-27 13:32:00,
2013-08-27 09:54:00,78.3,70.5,29.88,East,90,0.0,0.0,77,0.00,,,0.00,WUHU216HW,2013-08-27 13:54:00,
2013-08-27 09:55:00,78.3,70.5,29.88,East,90,0.0,0.0,77,0.00,,,0.00,WUHU216HW,2013-08-27 13:55:00,
2013-08-27 09:59:00,78.3,70.5,29.88,East,90,0.0,0.0,77,0.00,,,0.00,WUHU216HW,2013-08-27 13:59:00,
2013-08-27 10:00:00,78.8,70.6,29.88,WNW,293,0.4,0.4,76,0.00,,,0.00,WUHU216HW,2013-08-27 14:00:00,
2013-08-27 10:05:00,78.8,70.6,29.88,WNW,293,0.4,0.4,76,0.00,,,0.00,WUHU216HW,2013-08-27 14:05:00,
2013-08-27 10:06:00,78.8,70.6,29.88,WNW,293,0.4,0.4,76,0.00,,,0.00,WUHU216HW,2013-08-27 14:06:00,
2013-08-27 10:30:00,82.4,72.5,29.89,ESE,113,0.4,0.4,72,0.00,,,0.00,WUHU216HW,2013-08-27 14:30:00,
2013-08-27 10:35:00,82.4,72.5,29.89,ESE,113,0.4,0.4,72,0.00,,,0.00,WUHU216HW,2013-08-27 14:35:00,
2013-08-27 10:36:00,82.4,72.5,29.89,ESE,113,0.4,0.4,72,0.00,,,0.00,WUHU216HW,2013-08-27 14:36:00,
2013-08-27 11:00:00,84.2,72.1,29.89,ESE,113,0.2,0.2,67,0.00,,,0.00,WUHU216HW,2013-08-27 15:00:00,
2013-08-27 11:05:00,84.2,72.1,29.89,ESE,113,0.2,0.2,67,0.00,,,0.00,WUHU216HW,2013-08-27 15:05:00,
2013-08-27 11:06:00,84.2,72.1,29.89,ESE,113,0.2,0.2,67,0.00,,,0.00,WUHU216HW,2013-08-27 15:06:00,
2013-08-27 11:30:00,85.3,71.3,29.89,West,270,2.5,2.5,63,0.00,,,0.00,WUHU216HW,2013-08-27 15:30:00,
2013-08-27 11:32:00,85.3,71.3,29.89,West,270,2.5,2.5,63,0.00,,,0.00,WUHU216HW,2013-08-27 15:32:00,
2013-08-27 11:35:00,85.3,71.3,29.89,West,270,2.5,2.5,63,0.00,,,0.00,WUHU216HW,2013-08-27 15:35:00,
2013-08-27 11:38:00,85.3,71.3,29.89,West,270,2.5,2.5,63,0.00,,,0.00,WUHU216HW,2013-08-27 15:38:00,
2013-08-27 12:00:00,87.1,71.6,29.89,East,90,1.3,1.3,60,0.00,,,0.00,WUHU216HW,2013-08-27 16:00:00,
2013-08-27 12:05:00,87.1,71.6,29.89,East,90,1.3,1.3,60,0.00,,,0.00,WUHU216HW,2013-08-27 16:05:00,
2013-08-27 12:06:00,87.1,71.6,29.89,East,90,1.3,1.3,60,0.00,,,0.00,WUHU216HW,2013-08-27 16:06:00,
2013-08-27 12:30:00,87.7,71.6,29.89,ESE,113,1.1,1.1,59,0.00,,,0.00,WUHU216HW,2013-08-27 16:30:00,
2013-08-27 12:31:00,87.7,71.6,29.89,ESE,113,1.1,1.1,59,0.00,,,0.00,WUHU216HW,2013-08-27 16:31:00,
2013-08-27 12:35:00,87.7,71.6,29.89,ESE,113,1.1,1.1,59,0.00,,,0.00,WUHU216HW,2013-08-27 16:35:00,
2013-08-27 12:36:00,87.7,71.6,29.89,ESE,113,1.1,1.1,59,0.00,,,0.00,WUHU216HW,2013-08-27 16:36:00,
2013-08-27 12:37:00,87.7,71.6,29.89,ESE,113,1.1,1.1,59,0.00,,,0.00,WUHU216HW,2013-08-27 16:37:00,
2013-08-27 13:00:00,88.6,71.9,29.88,NW,315,3.4,3.4,58,0.00,,,0.00,WUHU216HW,2013-08-27 17:00:00,
2013-08-27 13:05:00,88.6,71.9,29.88,NW,315,3.4,3.4,58,0.00,,,0.00,WUHU216HW,2013-08-27 17:05:00,
2013-08-27 13:06:00,88.6,71.9,29.88,NW,315,3.4,3.4,58,0.00,,,0.00,WUHU216HW,2013-08-27 17:06:00,
2013-08-27 13:30:00,88.7,71.6,29.87,SE,135,0.0,0.0,57,0.00,,,0.00,WUHU216HW,2013-08-27 17:30:00,
2013-08-27 13:31:00,88.7,71.6,29.87,SE,135,0.0,0.0,57,0.00,,,0.00,WUHU216HW,2013-08-27 17:31:00,
2013-08-27 13:35:00,88.7,71.6,29.87,SE,135,0.0,0.0,57,0.00,,,0.00,WUHU216HW,2013-08-27 17:35:00,
2013-08-27 13:36:00,88.7,71.6,29.87,SE,135,0.0,0.0,57,0.00,,,0.00,WUHU216HW,2013-08-27 17:36:00,
2013-08-27 14:00:00,88.7,70.5,29.87,SE,135,2.2,2.2,55,0.00,,,0.00,WUHU216HW,2013-08-27 18:00:00,
2013-08-27 14:30:00,89.3,72.0,29.85,SE,135,1.8,1.8,57,0.00,,,0.00,WUHU216HW,2013-08-27 18:30:00,
2013-08-27 14:35:00,89.3,72.0,29.85,SE,135,1.8,1.8,57,0.00,,,0.00,WUHU216HW,2013-08-27 18:35:00,
2013-08-27 15:00:00,90.4,71.9,29.85,ESE,113,0.0,0.0,55,0.00,,,0.00,WUHU216HW,2013-08-27 19:00:00,
2013-08-27 15:01:00,90.4,71.9,29.85,ESE,113,0.0,0.0,55,0.00,,,0.00,WUHU216HW,2013-08-27 19:01:00,
2013-08-27 15:05:00,90.4,71.9,29.85,ESE,113,0.0,0.0,55,0.00,,,0.00,WUHU216HW,2013-08-27 19:05:00,
2013-08-27 15:06:00,90.4,71.9,29.85,ESE,113,0.0,0.0,55,0.00,,,0.00,WUHU216HW,2013-08-27 19:06:00,
2013-08-27 16:30:00,90.0,71.7,29.84,North,0,0.0,0.0,55,0.00,,,0.00,WUHU216HW,2013-08-27 20:30:00,
2013-08-27 16:31:00,90.0,71.7,29.84,North,0,0.0,0.0,55,0.00,,,0.00,WUHU216HW,2013-08-27 20:31:00,
2013-08-27 16:32:00,90.0,71.7,29.84,North,0,0.0,0.0,55,0.00,,,0.00,WUHU216HW,2013-08-27 20:32:00,
2013-08-27 16:35:00,90.0,71.7,29.84,North,0,0.0,0.0,55,0.00,,,0.00,WUHU216HW,2013-08-27 20:35:00,
2013-08-27 16:36:00,90.0,71.7,29.84,North,0,0.0,0.0,55,0.00,,,0.00,WUHU216HW,2013-08-27 20:36:00,
2013-08-27 16:37:00,90.0,71.7,29.84,North,0,0.0,0.0,55,0.00,,,0.00,WUHU216HW,2013-08-27 20:37:00,
2013-08-27 17:00:00,90.4,71.9,29.83,WSW,248,0.0,0.0,55,0.00,,,0.00,WUHU216HW,2013-08-27 21:00:00,
2013-08-27 17:05:00,90.4,71.9,29.83,WSW,248,0.0,0.0,55,0.00,,,0.00,WUHU216HW,2013-08-27 21:05:00,
2013-08-27 17:06:00,90.4,71.9,29.83,WSW,248,0.0,0.0,55,0.00,,,0.00,WUHU216HW,2013-08-27 21:06:00,
2013-08-27 17:30:00,88.4,72.8,29.84,ESE,113,0.2,0.2,60,0.00,,,0.00,WUHU216HW,2013-08-27 21:30:00,
2013-08-27 17:35:00,88.4,72.8,29.84,ESE,113,0.2,0.2,60,0.00,,,0.00,WUHU216HW,2013-08-27 21:35:00,
2013-08-27 18:00:00,87.3,73.2,29.83,East,90,0.0,0.0,63,0.00,,,0.00,WUHU216HW,2013-08-27 22:00:00,
2013-08-27 18:01:00,87.3,73.2,29.83,East,90,0.0,0.0,63,0.00,,,0.00,WUHU216HW,2013-08-27 22:01:00,
2013-08-27 18:05:00,87.3,73.2,29.83,East,90,0.0,0.0,63,0.00,,,0.00,WUHU216HW,2013-08-27 22:05:00,
2013-08-27 18:06:00,87.3,73.2,29.83,East,90,0.0,0.0,63,0.00,,,0.00,WUHU216HW,2013-08-27 22:06:00,
2013-08-27 19:00:00,83.7,71.6,29.83,West,270,0.0,0.0,67,0.00,,,0.00,WUHU216HW,2013-08-27 23:00:00,
2013-08-27 19:02:00,83.7,71.6,29.83,West,270,0.0,0.0,67,0.00,,,0.00,WUHU216HW,2013-08-27 23:02:00,
2013-08-27 19:05:00,83.7,71.6,29.83,West,270,0.0,0.0,67,0.00,,,0.00,WUHU216HW,2013-08-27 23:05:00,
2013-08-27 19:07:00,83.7,71.6,29.83,West,270,0.0,0.0,67,0.00,,,0.00,WUHU216HW,2013-08-27 23:07:00,
2013-08-27 19:30:00,81.9,70.8,29.83,West,270,0.0,0.0,69,0.00,,,0.00,WUHU216HW,2013-08-27 23:30:00,
2013-08-27 19:35:00,81.9,70.8,29.83,West,270,0.0,0.0,69,0.00,,,0.00,WUHU216HW,2013-08-27 23:35:00,
2013-08-27 19:36:00,81.9,70.8,29.83,West,270,0.0,0.0,69,0.00,,,0.00,WUHU216HW,2013-08-27 23:36:00,
2013-08-27 20:30:00,78.3,70.5,29.85,West,270,0.0,0.0,77,0.00,,,0.00,WUHU216HW,2013-08-28 00:30:00,
2013-08-27 20:35:00,78.3,70.5,29.85,West,270,0.0,0.0,77,0.00,,,0.00,WUHU216HW,2013-08-28 00:35:00,
2013-08-27 20:36:00,78.3,70.5,29.85,West,270,0.0,0.0,77,0.00,,,0.00,WUHU216HW,2013-08-28 00:36:00,
2013-08-27 21:00:00,77.0,70.4,29.85,West,270,0.0,0.0,80,0.00,,,0.00,WUHU216HW,2013-08-28 01:00:00,
2013-08-27 21:01:00,77.0,70.4,29.85,West,270,0.0,0.0,80,0.00,,,0.00,WUHU216HW,2013-08-28 01:01:00,
2013-08-27 21:05:00,77.0,70.4,29.85,West,270,0.0,0.0,80,0.00,,,0.00,WUHU216HW,2013-08-28 01:05:00,
2013-08-27 21:06:00,77.0,70.4,29.85,West,270,0.0,0.0,80,0.00,,,0.00,WUHU216HW,2013-08-28 01:06:00,
2013-08-27 21:07:00,77.0,70.4,29.85,West,270,0.0,0.0,80,0.00,,,0.00,WUHU216HW,2013-08-28 01:07:00,
2013-08-27 21:30:00,76.3,70.5,29.86,West,270,0.0,0.0,82,0.00,,,0.00,WUHU216HW,2013-08-28 01:30:00,
2013-08-27 21:31:00,76.3,70.5,29.86,West,270,0.0,0.0,82,0.00,,,0.00,WUHU216HW,2013-08-28 01:31:00,
2013-08-27 22:30:00,75.2,70.5,29.86,West,270,0.0,0.0,85,0.00,,,0.00,WUHU216HW,2013-08-28 02:30:00,
2013-08-27 22:31:00,75.2,70.5,29.86,West,270,0.0,0.0,85,0.00,,,0.00,WUHU216HW,2013-08-28 02:31:00,
2013-08-27 22:32:00,75.2,70.5,29.86,West,270,0.0,0.0,85,0.00,,,0.00,WUHU216HW,2013-08-28 02:32:00,
2013-08-27 22:35:00,75.2,70.5,29.86,West,270,0.0,0.0,85,0.00,,,0.00,WUHU216HW,2013-08-28 02:35:00,
2013-08-27 22:36:00,75.2,70.5,29.86,West,270,0.0,0.0,85,0.00,,,0.00,WUHU216HW,2013-08-28 02:36:00,
2013-08-27 22:37:00,75.2,70.5,29.86,West,270,0.0,0.0,85,0.00,,,0.00,WUHU216HW,2013-08-28 02:37:00,
2013-08-27 23:00:00,74.7,70.7,29.87,West,270,0.0,0.0,87,0.00,,,0.00,WUHU216HW,2013-08-28 03:00:00,
2013-08-27 23:05:00,74.7,70.7,29.87,West,270,0.0,0.0,87,0.00,,,0.00,WUHU216HW,2013-08-28 03:05:00,
2013-08-27 23:06:00,74.7,70.7,29.87,West,270,0.0,0.0,87,0.00,,,0.00,WUHU216HW,2013-08-28 03:06:00,
2013-08-27 23:30:00,74.2,70.4,29.87,West,270,0.0,0.0,88,0.00,,,0.00,WUHU216HW,2013-08-28 03:30:00,
2013-08-27 23:31:00,74.2,70.4,29.87,West,270,0.0,0.0,88,0.00,,,0.00,WUHU216HW,2013-08-28 03:31:00,
2013-08-27 23:35:00,74.2,70.4,29.87,West,270,0.0,0.0,88,0.00,,,0.00,WUHU216HW,2013-08-28 03:35:00,
2013-08-27 23:36:00,74.2,70.4,29.87,West,270,0.0,0.0,88,0.00,,,0.00,WUHU216HW,2013-08-28 03:36:00,
2013-08-27 23:37:00,74.2,70.4,29.87,West,270,0.0,0.0,88,0.00,,,0.00,WUHU216HW,2013-08-28 03:37:00,